Wind_Speed
41 41 40 41 45 45 46 47 47 56 66 60 69 59 70 57 52 59 59 62 67 65 60 57 53 59 60 55 49 48 42 40 41 38 36 37 36 36
40 41 42 40 44 45 46 48 47 53 61 74 69 51 60 55 69 58 58 56 60 64 63 62 56 55 59 61 52 49 46 43 40 37 36 36 35 36
39 40 42 40 42 45 46 48 49 50 57 67 76 73 55 56 62 65 61 60 59 64 67 62 56 53 59 61 59 53 55 47 40 37 36 34 33 32
37 39 41 41 41 44 46 48 49 48 54 59 76 73 75 48 56 67 76 64 64 57 64 65 66 54 59 63 66 57 56 45 42 40 39 36 34 32
36 37 38 40 41 43 45 48 48 47 50 55 69 73 72 62 55 48 62 71 57 63 58 62 65 56 56 63 67 67 58 47 43 44 41 38 35 33
34 36 37 39 40 41 44 46 46 47 47 50 57 65 64 65 64 52 53 54 58 61 56 60 68 64 60 58 68 67 63 49 48 45 43 44 40 36
32 34 35 37 38 40 41 43 42 43 45 46 50 56 65 67 62 51 50 55 53 59 66 58 70 78 68 58 55 62 61 58 52 53 47 47 44 39
29 30 32 34 36 38 38 40 39 41 43 42 41 54 53 57 71 61 47 51 58 49 52 62 59 72 79 64 66 58 64 63 61 55 53 50 44 45
23 26 29 29 32 33 34 36 37 37 40 39 39 45 51 54 61 66 54 47 50 48 58 54 64 62 67 70 64 64 64 67 66 61 52 53 48 55
19 21 24 26 28 30 32 33 35 35 37 40 38 38 38 37 48 63 59 52 51 43 44 57 56 58 55 64 68 66 64 64 64 58 65 60 56 49
14 15 18 21 22 25 29 30 32 32 34 37 36 37 35 33 36 48 66 56 51 52 54 54 48 57 57 62 70 62 57 58 66 62 56 52 55 44
14 13 14 15 17 21 26 28 30 28 30 34 34 35 33 30 33 39 47 57 52 44 44 55 50 52 45 61 63 62 58 62 63 72 64 59 50 52
21 18 16 15 16 18 22 26 27 25 27 30 32 33 33 31 29 34 42 49 56 54 44 41 55 41 45 57 65 66 63 61 58 63 64 65 56 58
19 20 20 18 20 22 22 25 25 24 26 29 30 30 32 31 30 31 37 43 53 58 55 38 39 44 40 57 66 60 57 65 61 61 62 61 58 58
13 15 16 17 18 21 24 25 26 26 26 28 31 31 32 32 32 32 32 39 45 60 64 51 40 31 33 52 60 65 66 66 71 62 64 61 57 55
13 12 12 14 15 17 20 23 26 26 27 28 29 30 31 33 33 33 34 35 41 53 61 63 52 40 32 39 56 63 59 61 60 59 64 61 62 62
15 14 12 11 13 15 16 18 21 24 26 27 27 30 31 31 31 32 35 35 38 44 47 50 69 56 41 34 48 58 57 55 55 60 59 61 67 64
15 14 14 14 13 12 16 19 21 23 25 27 28 29 30 31 32 32 34 37 39 41 47 49 56 64 60 42 50 55 56 52 45 55 57 61 62 65
14 15 15 15 13 13 12 13 19 23 25 25 26 27 28 29 31 32 33 35 39 41 46 48 52 61 65 56 45 46 42 41 38 42 47 66 58 47
15 15 14 14 14 13 12 12 13 15 20 25 28 28 28 28 29 30 32 34 36 39 43 46 51 55 64 60 58 50 45 49 48 41 40 36 51 56
14 14 14 14 13 13 13 12 12 12 14 17 21 25 27 29 30 30 31 31 34 38 42 45 48 51 55 63 65 57 50 51 49 45 46 48 49 40
14 14 14 14 13 13 13 13 13 13 13 15 17 20 24 27 30 32 34 35 36 37 40 45 49 51 53 63 66 62 57 53 55 54 52 45 36 40
13 13 13 14 14 14 15 15 15 14 15 16 17 20 23 27 30 33 35 37 38 39 41 43 49 52 54 57 62 64 59 59 58 60 55 50 47 48
Wind_Direction
272 268 263 255 252 250 247 245 243 237 218 213 215 214 215 217 224 225 227 237 233 230 233 231 232 232 234 229 232 223 219 220 222 221 223 228 231 235
271 268 263 257 251 248 246 244 241 240 231 215 217 203 217 221 223 224 223 227 228 225 227 227 229 230 227 226 220 223 220 217 219 222 226 229 232 236
270 268 262 258 252 248 245 243 241 240 238 221 213 223 212 213 214 221 224 224 227 225 227 223 221 224 224 228 222 228 216 213 217 223 227 228 231 237
268 266 261 257 252 247 244 242 241 240 241 232 225 218 223 215 207 208 218 229 222 223 225 223 223 223 224 225 227 230 214 209 215 220 225 227 231 236
267 265 259 255 251 246 244 242 241 239 241 239 232 230 222 226 216 208 207 221 224 225 229 222 215 221 224 224 223 224 216 213 217 220 223 230 235 236
265 263 258 253 250 245 243 242 241 239 241 242 234 240 233 221 215 218 208 212 219 222 222 221 217 220 222 223 223 224 228 229 216 222 225 230 238 238
265 262 257 252 248 245 244 241 242 240 240 243 238 242 239 237 217 216 211 216 221 220 228 225 222 224 227 216 220 224 224 223 220 216 223 227 241 239
270 265 259 253 248 245 244 242 240 239 238 243 243 238 242 249 237 223 216 214 207 214 216 222 225 219 222 227 221 222 224 220 223 226 221 225 239 238
275 265 260 254 250 246 245 243 240 240 240 241 240 241 244 250 249 231 235 218 206 204 214 219 219 217 222 227 226 224 222 225 227 216 222 227 231 234
286 273 260 254 250 247 245 242 238 240 241 241 241 242 246 245 251 244 232 224 219 211 210 218 224 223 225 224 222 224 225 222 220 228 222 223 225 234
311 295 277 262 254 249 249 247 241 240 240 240 240 242 246 236 242 247 235 221 216 221 217 223 230 231 221 225 222 222 227 220 221 223 220 222 225 230
301 304 303 282 260 250 250 250 243 241 240 239 238 239 243 242 235 242 247 245 230 207 205 222 213 217 221 230 225 223 222 221 221 223 228 229 232 224
287 283 271 266 274 260 254 250 248 242 239 239 239 238 240 242 237 236 245 249 244 229 218 215 210 209 201 212 225 222 218 220 220 223 225 228 229 229
287 282 279 270 263 260 255 253 252 245 239 237 237 239 242 240 239 237 237 245 250 244 225 211 207 199 195 211 215 225 218 216 220 218 221 221 225 232
304 291 283 269 261 258 255 255 253 251 247 241 237 236 237 239 240 244 241 240 242 245 233 216 215 198 193 197 210 217 219 220 217 218 220 221 226 236
314 305 293 277 268 260 256 254 252 252 253 252 247 245 243 243 243 243 242 239 241 244 248 245 224 221 208 189 205 216 217 222 218 224 223 226 231 231
317 317 316 303 278 262 259 253 247 246 248 250 251 252 251 251 249 244 242 239 239 240 236 238 241 230 223 211 201 203 207 216 213 218 218 223 226 228
312 315 318 316 308 287 261 250 248 247 250 251 251 250 250 250 249 248 245 243 237 235 235 227 236 243 233 224 208 210 213 206 207 222 217 223 229 230
312 314 310 308 308 308 297 272 252 247 247 250 253 253 252 250 249 246 245 243 242 232 233 226 227 240 244 231 215 202 206 212 218 227 220 220 228 229
309 305 303 300 300 303 305 299 284 267 256 251 250 249 250 250 248 247 245 242 239 238 231 226 227 228 237 234 228 220 224 221 230 241 233 223 232 229
306 303 300 299 297 297 299 302 299 288 276 265 255 250 249 250 249 248 246 244 243 241 236 228 224 228 224 234 234 230 217 225 226 229 231 230 230 233
311 307 303 300 301 299 297 296 296 295 289 281 273 261 253 251 250 249 249 248 245 241 237 230 227 226 226 224 234 232 226 224 227 224 229 222 223 227
313 312 308 304 304 304 302 298 295 295 295 287 277 270 265 260 255 251 250 250 248 244 237 232 227 226 225 224 225 228 231 222 223 224 218 222 218 224
Height
2897 2897 2898 2900 2901 2904 2907 2909 2914 2916 2926 2934 2947 2951 2963 2969 2972 2984 2992 3000 3008 3015 3023 3032 3040 3046 3053 3061 3067 3071 3076 3081 3088 3092 3096 3102 3106 3111
2887 2886 2887 2889 2890 2893 2895 2898 2903 2906 2909 2923 2929 2938 2950 2954 2963 2966 2978 2984 2991 3002 3010 3018 3027 3035 3040 3043 3055 3060 3068 3075 3081 3085 3089 3094 3098 3102
2876 2875 2875 2877 2879 2881 2884 2888 2892 2897 2898 2909 2919 2921 2930 2940 2944 2956 2964 2972 2979 2988 2996 3004 3013 3021 3029 3037 3043 3051 3058 3065 3072 3078 3083 3086 3090 3094
2866 2865 2864 2866 2868 2871 2874 2876 2881 2887 2889 2895 2900 2910 2914 2922 2930 2937 2945 2957 2964 2972 2982 2990 3000 3008 3018 3026 3035 3038 3047 3052 3062 3068 3075 3079 3082 3086
2855 2854 2855 2855 2857 2860 2862 2865 2870 2876 2879 2883 2889 2895 2902 2909 2915 2922 2928 2938 2950 2961 2969 2976 2984 2996 3006 3015 3023 3024 3031 3044 3052 3060 3065 3070 3076 3079
2845 2844 2845 2845 2847 2850 2852 2856 2861 2865 2870 2873 2881 2883 2892 2897 2903 2910 2914 2925 2938 2947 2956 2964 2974 2983 2993 3003 3010 3019 3025 3035 3042 3050 3057 3062 3067 3072
2835 2834 2835 2836 2838 2840 2843 2847 2851 2856 2860 2863 2871 2872 2879 2883 2888 2897 2904 2916 2927 2936 2943 2953 2961 2969 2977 2989 2996 3005 3013 3022 3030 3038 3048 3053 3057 3063
2827 2826 2826 2828 2829 2831 2834 2838 2843 2847 2851 2853 2860 2863 2870 2873 2876 2886 2897 2907 2918 2921 2930 2937 2947 2953 2964 2972 2982 2990 2999 3004 3020 3029 3037 3043 3048 3055
2821 2820 2819 2820 2821 2824 2826 2830 2834 2838 2842 2846 2851 2853 2855 2858 2863 2874 2881 2890 2898 2909 2917 2923 2931 2939 2950 2958 2969 2978 2989 2998 3008 3013 3025 3032 3039 3046
2816 2814 2813 2813 2814 2816 2819 2821 2826 2830 2835 2839 2845 2850 2852 2858 2859 2863 2873 2878 2887 2892 2901 2910 2920 2929 2937 2946 2956 2965 2977 2987 2994 2999 3013 3020 3028 3032
2813 2811 2809 2808 2810 2811 2812 2815 2819 2824 2827 2831 2837 2842 2845 2853 2856 2860 2865 2868 2877 2884 2889 2899 2912 2919 2923 2932 2941 2954 2963 2972 2984 2992 2999 3005 3015 3023
2811 2809 2807 2806 2805 2806 2806 2808 2812 2818 2820 2824 2829 2834 2837 2842 2848 2850 2858 2861 2868 2876 2886 2893 2902 2905 2913 2917 2928 2941 2949 2959 2970 2980 2991 2999 3006 3012
2807 2805 2804 2803 2802 2802 2801 2802 2805 2810 2813 2816 2820 2825 2830 2834 2839 2843 2847 2849 2856 2867 2876 2880 2890 2891 2897 2904 2916 2928 2937 2947 2957 2967 2977 2987 2995 3002
2802 2800 2799 2798 2797 2797 2797 2798 2799 2803 2805 2809 2812 2817 2820 2825 2829 2834 2837 2841 2847 2854 2861 2868 2877 2882 2881 2892 2903 2913 2924 2935 2946 2953 2963 2973 2982 2990
2798 2795 2793 2792 2792 2792 2792 2793 2795 2796 2798 2801 2804 2808 2811 2815 2817 2818 2824 2832 2837 2840 2848 2859 2867 2871 2874 2881 2889 2899 2913 2920 2931 2940 2949 2959 2967 2975
2794 2792 2789 2788 2787 2787 2787 2787 2789 2790 2792 2794 2796 2799 2801 2803 2806 2809 2813 2818 2819 2829 2839 2847 2856 2861 2864 2868 2875 2887 2900 2907 2918 2928 2939 2948 2957 2962
2790 2788 2785 2784 2782 2782 2781 2782 2782 2784 2785 2787 2788 2790 2793 2795 2797 2800 2803 2808 2811 2820 2829 2837 2842 2847 2854 2860 2866 2877 2887 2896 2907 2917 2927 2936 2944 2951
2787 2784 2782 2780 2778 2776 2776 2776 2777 2778 2778 2779 2781 2783 2785 2787 2790 2793 2796 2799 2804 2811 2819 2828 2833 2838 2845 2851 2859 2868 2877 2885 2897 2905 2915 2924 2930 2939
2783 2780 2778 2776 2774 2772 2771 2770 2770 2771 2772 2772 2774 2775 2776 2777 2780 2784 2788 2792 2793 2802 2806 2815 2820 2825 2832 2843 2855 2860 2868 2878 2887 2894 2900 2910 2917 2924
2779 2777 2775 2773 2771 2769 2767 2766 2765 2764 2764 2765 2766 2768 2769 2769 2771 2773 2776 2781 2787 2789 2790 2797 2807 2818 2826 2837 2846 2853 2860 2870 2879 2887 2891 2896 2904 2914
2776 2773 2771 2769 2768 2766 2764 2762 2760 2759 2758 2758 2758 2759 2761 2762 2763 2765 2767 2768 2770 2773 2779 2788 2799 2805 2811 2823 2831 2842 2849 2857 2867 2875 2883 2887 2893 2900
2772 2770 2768 2766 2764 2762 2760 2758 2756 2754 2753 2752 2751 2751 2752 2753 2754 2756 2757 2759 2762 2766 2770 2777 2784 2791 2797 2805 2818 2829 2840 2847 2856 2865 2872 2875 2883 2888
2769 2766 2764 2762 2759 2757 2755 2753 2751 2749 2747 2745 2744 2743 2743 2742 2743 2744 2746 2747 2750 2754 2759 2763 2769 2775 2783 2793 2805 2815 2827 2838 2846 2853 2858 2867 2873 2881